Date String (YYYY-MM-DD hh:mm:ss) UTC,Instrument flags,Ambient pressure (hPa),Sample flow (lpm),Bypass flow (lpm),Sample temperature (°C),Ambient temperature (°C),ASC tube jacket temperature (°C),LED temperature (°C),Box temperature (°C),Sample RH (%),Span deviation,Mass concentration (μg/m³),Mass concentration (μg/m³),Mass concentration (μg/m³)
DateTimeUTC,F1_M11,P_M11,Q1_M11,Q2_M11,T1_M11,T2_M11,T3_M11,T4_M11,T5_M11,U1_M11,ZSPAN_M11,X2_M11,X0_M11,X1_M11
2022-01-05 16:00:00,,0817.6,5.02,0.00,22.4,22.6,00.0,31.4,24.3,10.4,0000.0,0004.09,0008.70,0003.68
2022-01-05 16:01:00,,0817.5,5.00,0.00,22.6,23.2,00.0,31.5,24.5,10.3,0000.0,0004.11,0008.72,0003.68
2022-01-05 16:02:00,,0817.2,4.99,0.00,22.6,23.0,00.0,31.5,24.5,10.2,0000.0,0004.10,0008.67,0003.69
2022-01-05 16:03:00,,0817.1,5.01,0.00,22.6,22.8,00.0,31.5,24.3,10.2,0000.0,0004.10,0007.95,0003.70
2022-01-05 16:04:00,,0817.4,4.99,0.00,22.6,22.5,00.0,31.5,24.3,10.1,0000.0,0004.11,0007.58,0003.70
2022-01-05 16:05:00,,0817.5,5.01,0.00,22.6,22.3,00.0,31.5,24.2,10.2,0000.0,0004.12,0007.89,0003.72
2022-01-05 16:06:00,,0817.4,5.00,0.00,22.5,22.2,00.0,31.5,24.1,10.1,0000.0,0004.08,0007.26,0003.74
2022-01-05 16:07:00,,0817.4,5.00,0.00,22.5,22.1,00.0,31.5,24.1,10.1,0000.0,0004.09,0007.19,0003.75
2022-01-05 16:08:00,,0817.3,5.00,0.00,22.5,22.0,00.0,31.5,24.1,10.1,0000.0,0004.11,0007.09,0003.77
2022-01-05 16:09:00,,0817.3,5.00,0.00,22.4,21.8,00.0,31.5,24.0,10.1,0000.0,0004.13,0007.19,0003.78
2022-01-05 16:10:00,,0817.3,5.00,0.00,22.4,21.8,00.0,31.5,24.0,10.1,0000.0,0004.11,0007.20,0003.79
2022-01-05 16:11:00,,0817.4,4.99,0.00,22.4,21.7,00.0,31.5,24.0,10.1,0000.0,0004.11,0007.55,0003.80
2022-01-05 16:12:00,,0817.4,5.00,0.00,22.4,21.7,00.0,31.5,24.0,10.1,0000.0,0004.13,0007.61,0003.81
2022-01-05 16:13:00,,0817.4,5.00,0.00,22.4,21.6,00.0,31.4,24.0,10.1,0000.0,0004.17,0007.71,0003.82
2022-01-05 16:14:00,,0817.3,5.00,0.00,22.3,21.6,00.0,31.4,24.0,10.0,0000.0,0004.19,0007.73,0003.81
2022-01-05 16:15:00,,0817.4,5.00,0.00,22.3,21.6,00.0,31.4,24.0,10.0,0000.0,0004.21,0007.81,0003.80
2022-01-05 16:16:00,,0817.4,5.00,0.00,22.3,21.6,00.0,31.4,24.0,10.0,0000.0,0004.21,0007.65,0003.79
2022-01-05 16:17:00,,0817.2,4.99,0.00,22.3,21.6,00.0,31.4,24.0,10.1,0000.0,0004.22,0007.92,0003.78
2022-01-05 16:18:00,,0817.0,5.01,0.00,22.3,21.6,00.0,31.4,24.1,10.1,0000.0,0004.22,0008.11,0003.77
2022-01-05 16:19:00,,0817.0,5.00,0.00,22.3,21.6,00.0,31.4,24.1,10.1,0000.0,0004.21,0008.15,0003.76
2022-01-05 16:20:00,,0817.1,4.99,0.00,22.3,21.6,00.0,31.4,24.0,10.1,0000.0,0004.19,0008.11,0003.74
2022-01-05 16:21:00,,0817.3,5.00,0.00,22.3,21.6,00.0,31.4,24.0,10.1,0000.0,0004.21,0008.07,0003.73
2022-01-05 16:22:00,,0817.3,5.00,0.00,22.3,21.6,00.0,31.3,24.0,10.1,0000.0,0004.19,0007.72,0003.71
2022-01-05 16:23:00,,0817.3,5.01,0.00,22.4,22.1,00.0,31.4,24.1,10.1,0000.0,0004.13,0007.68,0003.69
2022-01-05 16:24:00,,0817.2,4.99,0.00,22.5,23.0,00.0,31.4,24.4,10.0,0000.0,0004.10,0008.39,0003.69
2022-01-05 16:25:00,,0817.2,5.00,0.00,22.7,23.6,00.0,31.5,24.7,09.9,0000.0,0004.08,0008.45,0003.70
2022-01-05 16:26:00,,0817.2,5.00,0.00,22.7,23.4,00.0,31.5,24.7,09.8,0000.0,0004.07,0008.32,0003.70
2022-01-05 16:27:00,,0817.2,5.00,0.00,22.8,23.2,00.0,31.5,24.6,09.8,0000.0,0004.04,0008.15,0003.70
2022-01-05 16:28:00,,0817.1,5.00,0.00,22.8,22.9,00.0,31.5,24.5,09.8,0000.0,0004.01,0008.07,0003.71
2022-01-05 16:29:00,,0817.1,5.00,0.00,22.7,22.7,00.0,31.6,24.5,09.8,0000.0,0004.01,0008.20,0003.71
2022-01-05 16:30:00,,0817.3,5.01,0.00,22.7,22.5,00.0,31.6,24.5,09.9,0000.0,0003.99,0008.08,0003.71
2022-01-05 16:31:00,,0817.3,5.00,0.00,22.7,22.4,00.0,31.6,24.4,09.9,0000.0,0003.99,0008.10,0003.71
2022-01-05 16:32:00,,0817.3,5.00,0.00,22.7,22.2,00.0,31.6,24.3,09.9,0000.0,0003.97,0008.04,0003.71
2022-01-05 16:33:00,,0817.1,5.00,0.00,22.6,22.1,00.0,31.6,24.2,09.9,0000.0,0003.96,0008.06,0003.72
2022-01-05 16:34:00,,0817.1,5.01,0.00,22.6,21.9,00.0,31.6,24.1,10.0,0000.0,0003.96,0008.02,0003.72
2022-01-05 16:35:00,,0817.1,4.99,0.00,22.5,21.9,00.0,31.6,24.1,10.0,0000.0,0003.95,0007.39,0003.71
2022-01-05 16:36:00,,0817.2,4.99,0.00,22.5,21.8,00.0,31.5,24.0,10.0,0000.0,0003.94,0006.89,0003.70
2022-01-05 16:37:00,,0817.1,5.01,0.00,22.4,21.7,00.0,31.5,23.9,10.0,0000.0,0003.91,0006.93,0003.68
2022-01-05 16:38:00,,0817.0,4.99,0.00,22.3,21.6,00.0,31.5,23.8,10.0,0000.0,0003.93,0007.12,0003.66
2022-01-05 16:39:00,,0817.1,5.00,0.00,22.3,21.5,00.0,31.5,23.9,10.1,0000.0,0003.92,0007.08,0003.64
2022-01-05 16:40:00,,0817.2,5.01,0.00,22.3,21.5,00.0,31.4,23.8,10.1,0000.0,0003.91,0006.06,0003.61
2022-01-05 16:41:00,,0817.1,4.99,0.00,22.2,21.5,00.0,31.4,23.8,10.1,0000.0,0003.92,0006.22,0003.59
2022-01-05 16:42:00,,0817.1,5.00,0.00,22.2,21.4,00.0,31.4,23.8,10.1,0000.0,0003.94,0006.33,0003.59
2022-01-05 16:43:00,,0817.1,5.01,0.00,22.2,21.4,00.0,31.4,23.8,10.2,0000.0,0003.92,0006.26,0003.58
2022-01-05 16:44:00,,0817.2,5.00,0.00,22.2,21.3,00.0,31.4,23.8,10.2,0000.0,0003.89,0006.11,0003.56
2022-01-05 16:45:00,,0817.1,4.99,0.00,22.2,21.7,00.0,31.3,23.9,10.2,0000.0,0003.85,0005.97,0003.54
2022-01-05 16:46:00,,0817.1,5.00,0.00,22.3,22.6,00.0,31.4,24.2,10.1,0000.0,0003.83,0005.94,0003.52
2022-01-05 16:47:00,,0817.1,5.01,0.00,22.5,23.1,00.0,31.4,24.4,10.0,0000.0,0003.82,0006.67,0003.51
2022-01-05 16:48:00,,0817.1,5.00,0.00,22.5,22.9,00.0,31.4,24.4,10.0,0000.0,0003.83,0006.77,0003.51
2022-01-05 16:49:00,,0817.1,5.00,0.00,22.5,22.7,00.0,31.4,24.3,10.0,0000.0,0003.79,0006.65,0003.51
2022-01-05 16:50:00,,0817.2,5.01,0.00,22.5,22.5,00.0,31.4,24.2,09.9,0000.0,0003.80,0006.70,0003.52
2022-01-05 16:51:00,,0817.2,5.00,0.00,22.5,22.3,00.0,31.4,24.1,10.0,0000.0,0003.79,0006.60,0003.54
2022-01-05 16:52:00,,0817.1,5.01,0.00,22.5,22.1,00.0,31.4,24.1,10.0,0000.0,0003.77,0006.38,0003.55
2022-01-05 16:53:00,,0817.1,5.01,0.00,22.4,22.0,00.0,31.4,24.1,10.0,0000.0,0003.76,0006.33,0003.54
2022-01-05 16:54:00,,0817.0,5.00,0.00,22.4,22.0,00.0,31.4,24.1,10.0,0000.0,0003.78,0006.47,0003.54
2022-01-05 16:55:00,,0817.1,5.00,0.00,22.4,21.9,00.0,31.4,24.1,10.1,0000.0,0003.81,0006.57,0003.56
2022-01-05 16:56:00,,0817.1,5.00,0.00,22.4,21.8,00.0,31.4,24.1,10.0,0000.0,0003.86,0006.72,0003.59
2022-01-05 16:57:00,,0817.0,5.00,0.00,22.4,21.8,00.0,31.4,24.1,10.0,0000.0,0003.89,0006.78,0003.63
2022-01-05 16:58:00,,0817.1,5.00,0.00,22.4,21.8,00.0,31.4,24.1,10.1,0000.0,0003.92,0005.98,0003.65
2022-01-05 16:59:00,,0817.2,5.00,0.00,22.4,21.7,00.0,31.4,24.1,10.1,0000.0,0003.90,0005.67,0003.66
